Volver al catálogo

CZ-6A DEB

ActivoSSO
NORAD 54309·DEBRIS·🇨🇳 China

Lanzado Nov 11, 2022 desde Taiyuan Satellite Launch Center

Loading…

Próximos Pases (próximas 24 horas)

TLE

ActualizadoSource: Space-Track

Época: Sep 14, 2026, 23:11 UTC

1 54309U 22151BC  26257.96657310  .00000260  00000-0  16251-3 0  9997
2 54309  98.8344 260.8336 0037743  65.9928 294.5188 14.12728767197379

Sigue CZ-6A DEB en tiempo real con AllMySat

Download on the App Store